This is the latest recevied weather packets stored in our database for station/object VU3DUE-WX. If no packets are shown the sender has not sent any weather packets the latest 10 day(s).
| Time | Temp. | Humidity | Pressure | Rain* | Wind** | Luminosity | Snow |
|---|---|---|---|---|---|---|---|
| 1788149551 | 25° C | 72% | 911.4 hPa | - | - | - | - |
| 1788148951 | 25° C | 73% | 911.4 hPa | - | - | - | - |
| 1788148351 | 25° C | 73% | 911.5 hPa | - | - | - | - |
| 1788147750 | 25° C | 73% | 911.6 hPa | - | - | - | - |
| 1788147150 | 24.44° C | 74% | 911.6 hPa | - | - | - | - |
| 1788146550 | 24.44° C | 74% | 911.5 hPa | - | - | - | - |
| 1788145950 | 24.44° C | 74% | 911.6 hPa | - | - | - | - |
| 1788145350 | 24.44° C | 75% | 911.5 hPa | - | - | - | - |
| 1788144750 | 24.44° C | 76% | 911.4 hPa | - | - | - | - |
| 1788144150 | 24.44° C | 72% | 911 hPa | - | - | - | - |
| 1788143444 | 23.89° C | 75% | 912.7 hPa | - | - | - | - |
| 1788142844 | 23.89° C | 76% | 912.7 hPa | - | - | - | - |
| 1788142244 | 23.89° C | 77% | 912.6 hPa | - | - | - | - |
| 1788141644 | 23.33° C | 77% | 912.4 hPa | - | - | - | - |
| 1788141044 | 23.33° C | 72% | 912.2 hPa | - | - | - | - |
| 1788136361 | 23.33° C | 76% | 911.6 hPa | - | - | - | - |
| 1788135838 | 23.33° C | 76% | 911.5 hPa | - | - | - | - |
| 1788135238 | 23.33° C | 76% | 911.4 hPa | - | - | - | - |
| 1788134637 | 23.33° C | 76% | 911.4 hPa | - | - | - | - |
| 1788134038 | 23.33° C | 76% | 911.4 hPa | - | - | - | - |
| 1788133437 | 23.33° C | 76% | 911.4 hPa | - | - | - | - |
| 1788132837 | 23.33° C | 76% | 911.4 hPa | - | - | - | - |
| 1788132237 | 23.33° C | 76% | 911.4 hPa | - | - | - | - |
| 1788131637 | 23.33° C | 75% | 911.3 hPa | - | - | - | - |
| 1788131037 | 23.89° C | 75% | 911.4 hPa | - | - | - | - |
* Rain since midnight (hover to see other rain measurements)
** Current wind speed in m/s (hover to see current wind gust speed)